Погода в Найдёновке

Россия / Республика Крым     45°16′20″N   34°27′01″E
темп.,
°C
ветер,
м/с
пор.,
м/с
влажн.,
%
обл.,
%
осадки,
мм/ч
давл.,
гПа
погр.,
м
13 апреля, вт
вт1300:00+9з238967 0.0 1021106
03:00+8з249174 0.0 1021112
06:00+8зсз2295100 0.0 1021105
09:00+9вюв119099 0.1 1022236
12:00+13вюв127080 0.0 1021824
15:00+14зсз2158100 0.2 10201165
18:00+11з3477100 0.1 1020391
21:00+9зюз238197 0.2 1020150
14 апреля, ср
ср1400:00+8юв1187100 0.0 101911
03:00+6ю118770 0.0 101811
06:00+5юв22846 0.0 101811
09:00+11юв34612 0.0 1017421
12:00+16ююв554264 0.0 10151195
15:00+15ююв6643100 0.0 10141147
18:00+13ююв4658100 0.0 1014379
21:00+10ююв226983 0.0 101554
15 апреля, чт
чт1500:00+8юв227737 0.0 101427
03:00+9ююв237579 0.0 101346
06:00+10ююв3788100 1.5 1013162
09:00+10зюз478492 1.6 1014501
12:00+14зюз910545 0.2 10141462
15:00+13зюз8105511 0.2 10151446
18:00+10зюз797050 0.0 1016973
21:00
16 апреля, пт
пт1600:00+6зюз488398 0.0 1016321
03:00+5юз48803 0.0 1016200
06:00+5ююз33705 0.0 101632
09:00+10юз56575 0.0 10161071
12:00+13зюз684579 0.0 10162167
15:00+13зюз794511 0.0 10162004
18:00+11зюз78585 0.0 10171136
21:00+6зюз49810 0.0 1018327
17 апреля, сб
сб1700:00+5юз510830 0.0 1019318
03:00+5юз48784 0.0 1019153
06:00+5ююз35715 0.0 101976
09:00+11юз45555 0.0 1020872
12:00+14зюз444547 0.0 10201835
15:00+14зсз544755 0.0 10201583
18:00+13зсз235593 0.0 1020430
21:00+9з357186 0.0 1021147